YMA7489 MMVA-MHLM

Flight info

Callsign YMA7489
Flight time 0h 54m
Altitude 31000
Route MMVA OLORI PESGA MHLM
Aircraft B738/M-VGDW/C

Departure

Time 2026-04-21 09:01
Airport Carlos Rovirosa Pérez International Airport (MMVA)

Arrival

Time 2026-04-21 09:55
Airport Ramón Villeda Morales International Airport (MHLM)
Time Latitude Longitude Altitude Speed Heading
2026-04-21 08:44 17.99357 -92.81849 40 ft 0 kts 176°
2026-04-21 08:56 17.99358 -92.81849 40 ft 1 kts 176°
2026-04-21 08:56 17.99362 -92.81849 42 ft 1 kts 176°
2026-04-21 08:56 17.99366 -92.81850 42 ft 1 kts 176°
2026-04-21 08:57 17.99371 -92.81850 42 ft 1 kts 176°
2026-04-21 08:57 17.99379 -92.81850 37 ft 2 kts 176°
2026-04-21 08:57 17.99395 -92.81852 41 ft 2 kts 179°
2026-04-21 08:57 17.99411 -92.81849 39 ft 2 kts 215°
2026-04-21 08:58 17.99420 -92.81836 40 ft 2 kts 265°
2026-04-21 08:58 17.99420 -92.81835 40 ft 0 kts 266°
2026-04-21 08:58 17.99416 -92.81879 39 ft 13 kts 265°
2026-04-21 08:58 17.99413 -92.81942 41 ft 14 kts 274°
2026-04-21 08:59 17.99501 -92.82040 39 ft 20 kts 303°
2026-04-21 08:59 17.99564 -92.82192 39 ft 21 kts 296°
2026-04-21 08:59 17.99632 -92.82274 39 ft 8 kts
2026-04-21 08:59 17.99658 -92.82242 39 ft 0 kts 88°
2026-04-21 09:00 17.99663 -92.82131 40 ft 60 kts 87°
2026-04-21 09:00 17.99712 -92.81306 46 ft 162 kts 87°
2026-04-21 09:01 17.99781 -92.79888 554 ft 207 kts 87°
2026-04-21 09:01 17.99841 -92.78427 2176 ft 189 kts 88°
2026-04-21 09:01 17.99869 -92.77160 4026 ft 166 kts 89°
2026-04-21 09:01 17.99886 -92.75926 5279 ft 183 kts 89°
2026-04-21 09:02 17.99957 -92.74345 5038 ft 247 kts 86°
2026-04-21 09:02 18.00090 -92.72341 3288 ft 305 kts 86°
2026-04-21 09:02 18.00226 -92.70219 3475 ft 273 kts 86°
2026-04-21 09:03 18.00462 -92.66553 4628 ft 254 kts 86°
2026-04-21 09:03 18.00588 -92.64632 5283 ft 270 kts 87°
2026-04-21 09:03 18.00398 -92.62669 5822 ft 272 kts 108°
2026-04-21 09:03 17.99655 -92.60846 6397 ft 271 kts 115°
2026-04-21 09:04 17.98876 -92.59017 7052 ft 276 kts 114°
2026-04-21 09:04 17.98098 -92.57164 7685 ft 278 kts 114°
2026-04-21 09:04 17.97418 -92.55246 8253 ft 283 kts 101°
2026-04-21 09:04 17.97226 -92.53216 8816 ft 282 kts 94°
2026-04-21 09:05 17.97065 -92.51139 9462 ft 286 kts 95°
2026-04-21 09:05 17.96891 -92.49044 10090 ft 289 kts 95°
2026-04-21 09:05 17.96716 -92.46915 10695 ft 298 kts 95°
2026-04-21 09:05 17.96506 -92.44720 11269 ft 312 kts 96°
2026-04-21 09:06 17.96277 -92.42399 11829 ft 324 kts 96°
2026-04-21 09:06 17.96043 -92.40007 12381 ft 334 kts 96°
2026-04-21 09:06 17.95799 -92.37536 12940 ft 345 kts 96°
2026-04-21 09:06 17.95552 -92.34996 13495 ft 355 kts 96°
2026-04-21 09:07 17.95298 -92.32391 14047 ft 360 kts 96°
2026-04-21 09:07 17.95041 -92.29765 14576 ft 362 kts 96°
2026-04-21 09:07 17.94793 -92.27121 15098 ft 365 kts 95°
2026-04-21 09:07 17.94577 -92.24450 15616 ft 369 kts 95°
2026-04-21 09:08 17.94044 -92.21849 16044 ft 373 kts 112°
2026-04-21 09:08 17.92893 -92.19406 16538 ft 372 kts 118°
2026-04-21 09:08 17.91679 -92.16996 17080 ft 375 kts 118°
2026-04-21 09:08 17.90458 -92.14546 17575 ft 380 kts 117°
2026-04-21 09:09 17.89224 -92.12069 18059 ft 382 kts 117°
2026-04-21 09:09 17.88025 -92.09599 18498 ft 385 kts 117°
2026-04-21 09:09 17.86822 -92.07075 18909 ft 388 kts 116°
2026-04-21 09:09 17.85610 -92.04538 19317 ft 390 kts 117°
2026-04-21 09:10 17.84390 -92.01983 19722 ft 392 kts 116°
2026-04-21 09:10 17.83168 -91.99413 20114 ft 394 kts 116°
2026-04-21 09:10 17.81933 -91.96826 20529 ft 397 kts 117°
2026-04-21 09:10 17.80690 -91.94224 20940 ft 399 kts 117°
2026-04-21 09:11 17.79415 -91.91627 21318 ft 402 kts 117°
2026-04-21 09:11 17.78118 -91.89020 21693 ft 404 kts 117°
2026-04-21 09:11 17.76817 -91.86399 22089 ft 406 kts 117°
2026-04-21 09:11 17.75520 -91.83788 22460 ft 409 kts 117°
2026-04-21 09:12 17.74211 -91.81134 22842 ft 411 kts 117°
2026-04-21 09:12 17.72925 -91.78438 23216 ft 413 kts 116°
2026-04-21 09:12 17.71642 -91.75733 23589 ft 416 kts 116°
2026-04-21 09:12 17.70347 -91.73008 23968 ft 418 kts 116°
2026-04-21 09:13 17.69040 -91.70264 24329 ft 421 kts 117°
2026-04-21 09:13 17.67693 -91.67520 24694 ft 423 kts 117°
2026-04-21 09:13 17.66333 -91.64777 25051 ft 425 kts 117°
2026-04-21 09:13 17.64985 -91.62054 25404 ft 427 kts 117°
2026-04-21 09:14 17.63610 -91.59268 25758 ft 430 kts 117°
2026-04-21 09:14 17.62228 -91.56475 26109 ft 433 kts 117°
2026-04-21 09:14 17.60837 -91.53658 26460 ft 435 kts 117°
2026-04-21 09:14 17.59445 -91.50832 26811 ft 437 kts 117°
2026-04-21 09:15 17.58074 -91.47973 27159 ft 439 kts 116°
2026-04-21 09:15 17.56734 -91.45135 27493 ft 442 kts 116°
2026-04-21 09:15 17.55350 -91.42238 27832 ft 443 kts 117°
2026-04-21 09:15 17.53933 -91.39356 28170 ft 446 kts 117°
2026-04-21 09:16 17.52504 -91.36462 28494 ft 448 kts 117°
2026-04-21 09:16 17.51069 -91.33546 28829 ft 451 kts 117°
2026-04-21 09:16 17.49647 -91.30653 29153 ft 453 kts 117°
2026-04-21 09:16 17.48194 -91.27703 29485 ft 455 kts 117°
2026-04-21 09:17 17.46741 -91.24743 29809 ft 457 kts 117°
2026-04-21 09:17 17.45282 -91.21775 30134 ft 460 kts 117°
2026-04-21 09:17 17.43810 -91.18784 30452 ft 462 kts 117°
2026-04-21 09:17 17.42338 -91.15781 30770 ft 465 kts 117°
2026-04-21 09:18 17.40873 -91.12793 30974 ft 469 kts 117°
2026-04-21 09:18 17.39369 -91.09730 30995 ft 474 kts 117°
2026-04-21 09:18 17.36375 -91.03611 31000 ft 469 kts 117°
2026-04-21 09:19 17.33907 -90.98573 31000 ft 467 kts 117°
2026-04-21 09:19 17.30938 -90.92500 31000 ft 468 kts 117°
2026-04-21 09:20 17.27967 -90.86418 31001 ft 468 kts 117°
2026-04-21 09:20 17.25001 -90.80344 31000 ft 468 kts 117°
2026-04-21 09:21 17.22065 -90.74318 31000 ft 468 kts 117°
2026-04-21 09:21 17.19035 -90.68285 31000 ft 468 kts 118°
2026-04-21 09:22 17.15990 -90.62258 31001 ft 469 kts 117°
2026-04-21 09:22 17.13025 -90.56165 31000 ft 468 kts 117°
2026-04-21 09:23 17.10080 -90.50123 31000 ft 469 kts 117°
2026-04-21 09:23 17.07032 -90.44083 31000 ft 469 kts 118°
2026-04-21 09:24 17.03993 -90.38079 31000 ft 469 kts 117°
2026-04-21 09:24 17.01030 -90.32006 31000 ft 468 kts 117°
2026-04-21 09:25 16.98076 -90.25935 31000 ft 468 kts 117°
2026-04-21 09:25 16.95044 -90.19910 31000 ft 468 kts 118°
2026-04-21 09:26 16.92003 -90.13880 31000 ft 469 kts 118°
2026-04-21 09:26 16.88982 -90.07881 30999 ft 469 kts 117°
2026-04-21 09:27 16.85948 -90.01835 31000 ft 469 kts 117°
2026-04-21 09:27 16.82914 -89.95793 31000 ft 469 kts 117°
2026-04-21 09:28 16.79880 -89.89751 31000 ft 469 kts 117°
2026-04-21 09:28 16.76875 -89.83742 31000 ft 469 kts 117°
2026-04-21 09:29 16.73853 -89.77695 31000 ft 469 kts 117°
2026-04-21 09:29 16.70834 -89.71657 31000 ft 469 kts 117°
2026-04-21 09:30 16.67813 -89.65613 30999 ft 469 kts 117°
2026-04-21 09:30 16.64810 -89.59602 31000 ft 470 kts 117°
2026-04-21 09:31 16.61373 -89.53828 30983 ft 470 kts 132°
2026-04-21 09:31 16.56842 -89.48924 31009 ft 470 kts 134°
2026-04-21 09:32 16.52289 -89.44061 31001 ft 471 kts 134°
2026-04-21 09:32 16.47709 -89.39164 30999 ft 471 kts 134°
2026-04-21 09:33 16.43210 -89.34201 31001 ft 471 kts 133°
2026-04-21 09:33 16.38711 -89.29216 31001 ft 472 kts 133°
2026-04-21 09:34 16.34223 -89.24277 30996 ft 472 kts 131°
2026-04-21 09:34 16.32435 -89.21418 30947 ft 473 kts 112°
2026-04-21 09:34 16.31554 -89.18128 31000 ft 472 kts 100°
2026-04-21 09:35 16.30561 -89.11346 31017 ft 473 kts 98°
2026-04-21 09:35 16.29547 -89.04626 31002 ft 471 kts 99°
2026-04-21 09:36 16.28426 -88.97918 31000 ft 469 kts 100°
2026-04-21 09:36 16.27280 -88.91277 31000 ft 468 kts 100°
2026-04-21 09:37 16.26135 -88.84590 31000 ft 468 kts 100°
2026-04-21 09:37 16.24993 -88.77913 31000 ft 468 kts 100°
2026-04-21 09:38 16.23855 -88.71233 31000 ft 468 kts 100°
2026-04-21 09:38 16.22725 -88.64593 31000 ft 469 kts 100°
2026-04-21 09:39 16.21593 -88.57908 31000 ft 468 kts 100°
2026-04-21 09:39 16.21031 -88.54572 30596 ft 471 kts 100°
2026-04-21 09:39 16.20461 -88.51193 29282 ft 474 kts 100°
2026-04-21 09:40 16.19893 -88.47849 27968 ft 460 kts 100°
2026-04-21 09:40 16.19342 -88.44659 27203 ft 437 kts 101°
2026-04-21 09:40 16.18786 -88.41638 26284 ft 417 kts 101°
2026-04-21 09:40 16.18248 -88.38745 25079 ft 407 kts 101°
2026-04-21 09:41 16.17726 -88.35926 24419 ft 386 kts 101°
2026-04-21 09:41 16.17257 -88.33247 23869 ft 366 kts 100°
2026-04-21 09:41 16.16833 -88.30693 22842 ft 358 kts 100°
2026-04-21 09:41 16.16408 -88.28151 22062 ft 350 kts 100°
2026-04-21 09:42 16.16003 -88.25706 21487 ft 337 kts 99°
2026-04-21 09:42 16.15574 -88.23198 20396 ft 376 kts 101°
2026-04-21 09:42 16.15074 -88.20484 19696 ft 391 kts 101°
2026-04-21 09:42 16.14572 -88.17729 19260 ft 374 kts 100°
2026-04-21 09:43 16.14122 -88.15225 19043 ft 337 kts 101°
2026-04-21 09:43 16.13693 -88.12869 18507 ft 327 kts 101°
2026-04-21 09:43 16.13272 -88.10517 17268 ft 337 kts 100°
2026-04-21 09:43 16.12879 -88.08139 16647 ft 328 kts 99°
2026-04-21 09:44 16.12303 -88.05878 15352 ft 330 kts 117°
2026-04-21 09:44 16.10836 -88.04146 14499 ft 306 kts 139°
2026-04-21 09:44 16.08909 -88.03057 13565 ft 314 kts 155°
2026-04-21 09:44 16.06968 -88.02139 13111 ft 294 kts 155°
2026-04-21 09:45 16.05052 -88.01228 12087 ft 305 kts 156°
2026-04-21 09:45 16.03147 -88.00341 11229 ft 299 kts 156°
2026-04-21 09:45 16.01273 -87.99486 10901 ft 283 kts 156°
2026-04-21 09:45 15.99506 -87.98681 10656 ft 272 kts 156°
2026-04-21 09:46 15.97725 -87.97872 10379 ft 290 kts 156°
2026-04-21 09:46 15.95890 -87.97043 10089 ft 288 kts 157°
2026-04-21 09:46 15.94044 -87.96240 9751 ft 290 kts 158°
2026-04-21 09:46 15.92180 -87.95431 9465 ft 285 kts 158°
2026-04-21 09:47 15.90331 -87.94625 9135 ft 289 kts 158°
2026-04-21 09:47 15.88515 -87.93836 8833 ft 278 kts 158°
2026-04-21 09:47 15.86744 -87.93021 8516 ft 283 kts 153°
2026-04-21 09:47 15.85045 -87.92039 8200 ft 276 kts 150°
2026-04-21 09:48 15.83398 -87.91060 7906 ft 268 kts 150°
2026-04-21 09:48 15.81792 -87.90110 7582 ft 262 kts 150°
2026-04-21 09:48 15.80217 -87.89175 7265 ft 259 kts 150°
2026-04-21 09:48 15.78658 -87.88252 6958 ft 256 kts 150°
2026-04-21 09:49 15.77187 -87.87379 6769 ft 238 kts 150°
2026-04-21 09:49 15.75781 -87.86550 6510 ft 227 kts 151°
2026-04-21 09:49 15.74405 -87.85766 6268 ft 224 kts 152°
2026-04-21 09:49 15.73031 -87.84999 6014 ft 225 kts 156°
2026-04-21 09:50 15.71527 -87.84566 5729 ft 225 kts 175°
2026-04-21 09:50 15.69978 -87.84500 5515 ft 221 kts 178°
2026-04-21 09:50 15.68440 -87.84421 5266 ft 222 kts 177°
2026-04-21 09:50 15.66923 -87.84340 4999 ft 219 kts 178°
2026-04-21 09:51 15.65416 -87.84261 4740 ft 214 kts 178°
2026-04-21 09:51 15.63938 -87.84184 4487 ft 212 kts 178°
2026-04-21 09:51 15.62461 -87.84132 4239 ft 212 kts 179°
2026-04-21 09:51 15.60972 -87.84082 3984 ft 214 kts 179°
2026-04-21 09:52 15.59493 -87.84029 3733 ft 211 kts 179°
2026-04-21 09:52 15.58042 -87.83978 3476 ft 206 kts 178°
2026-04-21 09:52 15.56624 -87.83909 3208 ft 202 kts 179°
2026-04-21 09:52 15.55256 -87.84187 2905 ft 200 kts 200°
2026-04-21 09:53 15.54038 -87.84787 2637 ft 196 kts 217°
2026-04-21 09:53 15.52999 -87.85694 2380 ft 191 kts 220°
2026-04-21 09:53 15.51987 -87.86545 2099 ft 182 kts 219°
2026-04-21 09:53 15.51037 -87.87355 1806 ft 172 kts 220°
2026-04-21 09:54 15.50143 -87.88141 1499 ft 163 kts 220°
2026-04-21 09:54 15.49310 -87.88867 1232 ft 154 kts 220°
2026-04-21 09:54 15.48508 -87.89558 937 ft 145 kts 219°
2026-04-21 09:54 15.47749 -87.90193 667 ft 135 kts 220°
2026-04-21 09:55 15.47048 -87.90800 405 ft 129 kts 221°
2026-04-21 09:55 15.46373 -87.91390 166 ft 125 kts 220°
2026-04-21 09:55 15.45748 -87.91937 94 ft 96 kts 219°
2026-04-21 09:55 15.45474 -87.92168 98 ft 40 kts 219°
2026-04-21 09:56 15.45450 -87.92331 96 ft 23 kts 311°
2026-04-21 09:56 15.45542 -87.92436 95 ft 15 kts 302°
2026-04-21 09:56 15.45561 -87.92507 97 ft 5 kts 265°
2026-04-21 09:56 15.45513 -87.92565 95 ft 18 kts 218°
2026-04-21 09:57 15.45519 -87.92640 95 ft 12 kts 320°
2026-04-21 09:57 15.45551 -87.92676 97 ft 0 kts 310°